www.pogodaiklimat.ru

Погода и климат >> Архив погоды >> Россия >> Чукотка >> Анадырь


АРХИВ ПОГОДЫ в Анадыре

Время (UTC), дата Ветер
(напр.,м/с)
 
Видим.   Явления Облачность Т
(С)
Тd
(С)
f
(%)
Тe
(С)
Тes
(С)
Комфортность P
(гПа)
Po
(гПа)
Тmin
(С)
Tmax
(С)
R
(мм)
R24
(мм)
S
(см)
12 11.08 В 9-12
{14}
50 км 10/10 600 м
[Cb cap]
+11.7 +8.6 81 +8 +8 по сезону 1013.5 1006.2
15 11.08 В 9-12
{14}
50 км 9/9 600 м
[Cb cap]
+11.5 +8.9 84 +8 +8 по сезону 1011.5 1004.2
18 11.08 В 7-10
{13}
50 км в посл. час ливневой дождь 9/8 600 м
[Cb cap Ac trans]
+11.6 +9.0 84 +8 +8 по сезону 1010.2 1002.9 +10.2 0.3
21 11.08 В 10-12
{13}
20 км слаб. ливневой дождь 10/10 300 м
[Cb cap]
+12.4 +9.7 84 +9 +9 по сезону 1008.5 1001.2
00 12.08 В 10-13
{14}
5000 м слаб. ливневой дождь 10/10 300 м
[Cb cap]
+11.6 +10.0 90 +8 +8 по сезону 1007.2 999.9
03 12.08 В 8-10
{13}
15 км слаб. ливневой дождь 10/10 300 м
[Cb cap]
+12.0 +10.0 88 +9 +9 по сезону 1006.2 998.9
06 12.08 В 7
{12}
6000 м туман на расстоянии {ливн. осадки} 9/9 300 м
[Cb cap]
+11.4 +9.7 89 +8 +8 по сезону 1005.2 997.9 +12.4 0.3
09 12.08 В 5
{9}
20 км {ливн. осадки} 10/10 300 м
[Cb cap]
+10.4 +9.2 92 +7 +7 по сезону 1005.2 997.8
12 12.08 В 6
{8}
20 км {ливн. осадки} 9/9 300 м
[Cb cap]
+10.0 +8.8 92 +6 +6 по сезону 1004.5 997.1
15 12.08 ЮВ 7
{11}
20 км 10/10 300 м
[Cb cap]
+9.4 +8.4 93 +5 +5 по сезону 1003.7 996.3
18 12.08 ЮВ 8
{11}
7000 м туман на расстоянии 9/9 300 м
[Cb cap]
+10.3 +8.9 91 +6 +6 по сезону 1003.5 996.1 +9.4 0.0
21 12.08 ЮВ 10-12
{12}
15 км слаб. ливневой дождь 10/10 300 м
[Cb cap]
+10.6 +9.4 92 +6 +6 по сезону 1003.6 996.2
00 13.08 ЮВ 8-12
{12}
11 км слаб. ливневой дождь 10/10 300 м
[Cb cap]
+11.3 +9.9 91 +8 +8 по сезону 1003.2 995.9
03 13.08 В 8-10
{14}
20 км {ливн. осадки} 9/9 300 м
[Cb cap]
+11.6 +9.0 84 +8 +8 по сезону 1003.3 996.0
06 13.08 ЮВ 11-14
{14}
20 км {ливн. осадки} 10/10 300 м
[Cb cap]
+10.6 +9.7 94 +6 +6 прохладно 1003.0 995.6 +11.8 0.0
09 13.08 В 7
{14}
8000 м туман на расстоянии 10/10 300 м
[Cb cap]
+9.8 +9.2 96 +6 +6 по сезону 1003.5 996.1
12 13.08 В 4
{9}
50 км 10/10 300 м
[Cb cap]
+10.1 +8.0 87 +7 +7 по сезону 1003.5 996.1
15 13.08 В 4
{6}
50 км 9/9 600 м
[Cb cap]
+9.7 +8.1 90 +7 +7 по сезону 1003.7 996.3
18 13.08 ЮВ 2
{5}
50 км {ливн. осадки} 9/6 600 м
[Cb cap Ac trans]
+10.4 +8.4 87 +9 +9 тепло 1004.5 997.1 +9.5 0.0
21 13.08 Ю 5
{8}
50 км 8/5 600 м
[Cb cap Cc]
+11.8 +9.2 84 +9 +10 по сезону 1005.6 998.3
00 14.08 Ю 3
{6}
50 км 8/5 600 м
[Cb cap Ac trans]
+12.0 +9.8 86 +10 +13 по сезону 1006.8 999.5
03 14.08 Ю 2
{5}
50 км 9/9 600 м
[Cb cap]
+13.6 +11.0 84 +13 +14 тепло 1007.0 999.7
06 14.08 З 3
{5}
50 км 8/6 600 м
[Sc diur, vesp Ac trans Ci fib]
+13.6 +9.9 78 +12 +13 тепло 1007.5 1000.2 +14.1
09 14.08 З 7-10
{10}
50 км 9/8 600 м
[Sc Ac trans]
+12.9 +10.2 84 +10 +10 по сезону 1008.5 1001.2
12 14.08 СЗ 10-12
{13}
20 км слаб. ливневой дождь 10/10 300 м
[Cb cap]
+8.2 +5.9 85 +3 +3 прохладно 1009.9 1002.5
15 14.08 СЗ 10-12
{14}
50 км в посл. час ливневой дождь 9/9 600 м
[Cb cap]
+6.7 +2.3 73 +1 +1 прохладно 1011.4 1004.0
18 14.08 СЗ 11-13
{14}
50 км {ливн. осадки} 3/1 600 м
[Cb calv Ci fib]
+4.9 +1.1 76 -2 -2 холодно 1013.5 1005.9 +4.7 0.0
21 14.08 СЗ 7-10
{13}
50 км 3/1 600 м
[Sc Ci fib]
+6.8 +1.6 69 +2 +3 холодно 1015.9 1008.4
00 15.08 СЗ 8-12
{12}
50 км 5/5 600 м
[Cu hum]
+9.1 +1.9 61 +5 +6 прохладно 1017.3 1009.8
03 15.08 СЗ 6
{12}
50 км 4/4 600 м
[Sc diur, vesp]
+10.5 +1.5 54 +8 +9 по сезону 1017.5 1010.0
06 15.08 СЗ 9-12
{12}
50 км 8/8 600 м
[Cb cap]
+9.2 +0.6 55 +5 +5 прохладно 1018.7 1011.2 +10.8
09 15.08 С 5
{12}
50 км 3/1 600 м
[Sc Ci fib]
+5.6 -0.2 66 +1 +1 холодно 1020.9 1013.3
12 15.08 С 6
{8}
50 км 1/0
[Ci fib]
+5.0 -0.3 69 0 0 холодно 1021.5 1013.9
15 15.08 СЗ 6
{9}
50 км 3/0
[Ci fib]
+3.9 +1.1 82 -2 -2 очень
холодно
1022.5 1014.9
18 15.08 СЗ 9-11
{11}
50 км 3/1 300 м
[St Ci fib]
+3.8 +1.2 83 -3 -3 очень
холодно
1023.2 1015.5 +1.8
21 15.08 СЗ 7
{13}
50 км 3/1 600 м
[Sc Ci fib]
+5.7 +2.0 77 +1 +2 холодно 1025.1 1017.4
00 16.08 СЗ 7
{10}
50 км 4/4 600 м
[Frnb]
+9.5 +2.7 63 +6 +7 прохладно 1025.6 1018.1
03 16.08 С 5-10
{10}
50 км 3/1 600 м
[Cu hum Ci fib]
+12.5 +1.5 47 +11 +13 по сезону 1026.0 1018.6
06 16.08 С 5
{10}
50 км 8/0
[Cs]
+12.4 +0.6 44 +10 +11 по сезону 1026.2 1018.8 +12.8
09 16.08 СВ 4
{7}
50 км 8/0
[Ac trans Cs]
+9.5 +3.0 64 +7 +7 по сезону 1027.3 1019.8
12 16.08 ЮВ 3
{6}
50 км 5/0
[Ac trans Ci fib]
+8.1 +4.1 76 +6 +6 по сезону 1029.5 1022.0
15 16.08 СВ 3
{4}
50 км 9/0
[Ac trans Ci fib]
+8.3 +1.7 63 +6 +6 по сезону 1030.3 1022.8
18 16.08 СВ 6
{8}
50 км 9/8 600 м
[Sc Ac trans]
+7.2 +2.7 73 +3 +3 по сезону 1031.9 1024.4 +7.1
21 16.08 СВ 2
{9}
50 км 9/8 600 м
[Sc Ac trans]
+11.1 +4.5 64 +10 +11 тепло 1033.2 1025.7
00 17.08 В 8-11
{12}
50 км 9/8 600 м
[Sc Ac trans Ci fib]
+13.3 +5.6 60 +11 +11 по сезону 1034.9 1027.4
03 17.08 ЮВ 11-13
{14}
50 км 9/8 600 м
[Cb cap Ac trans]
+12.0 +5.8 66 +8 +8 по сезону 1035.3 1027.8
06 17.08 В 11-14
{14}
50 км 9/8 600 м
[Cb cap Ac trans]
+10.8 +5.6 70 +7 +7 по сезону 1036.0 1028.4 +14.1
09 17.08 В 8-11
{14}
50 км 10/6 600 м
[Cb cap Ac und]
+9.6 +5.9 78 +6 +6 по сезону 1036.3 1028.7
12 17.08 В 9-11
{14}
20 км слаб. ливневой дождь 10/10 300 м
[Cb cap]
+9.3 +7.0 86 +5 +5 по сезону 1036.3 1028.7
15 17.08 В 8-11
{11}
15 км слаб. ливневой дождь 10/10 300 м
[Cb cap]
+8.9 +7.4 90 +4 +4 по сезону 1036.0 1028.4
18 17.08 В 10-12
{14}
7000 м ливневой дождь 10/10 300 м
[Cb cap]
+9.2 +7.6 90 +4 +4 по сезону 1035.5 1027.9 +8.8 4
21 17.08 В 12-15
{19}
20 км слаб. ливневой дождь 10/10 300 м
[Cb cap]
+9.7 +8.1 90 +5 +5 по сезону 1035.0 1027.4
00 18.08 В 11-14
{17}
12 км слаб. ливневой дождь 10/10 300 м
[Cb cap]
+9.8 +8.4 91 +5 +5 прохладно 1035.0 1027.4
03 18.08 В 9-16
{17}
15 км слаб. ливневой дождь 10/10 300 м
[Cb cap]
+10.0 +8.4 90 +6 +6 прохладно 1034.2 1026.6
06 18.08 В 12-16
{19}
18 км слаб. ливневой дождь 10/10 300 м
[Cb cap]
+9.6 +8.1 90 +4 +4 прохладно 1033.2 1025.6 +10.3 2
09 18.08 ЮВ 13-17
{17}
11 км слаб. ливневой дождь 10/10 300 м
[Cb cap]
+9.4 +8.6 95 +4 +4 прохладно 1032.2 1024.7

 

Местоположение метеостанции Анадырь (Чукотка, Россия): широта 64.78 долгота 177.50 высота над уровнем моря 61 м.

В архиве по умолчанию представлена погода в Анадыре за последнюю неделю. Архивные данные за месяц целиком и за предыдущие месяцы, начиная с января 2011 года, Вы можете получить, выбрав интересующий диапазон дат из раскрывающегося списка и нажав кнопку "Ввод!".


*Определитесь, кто Вы:
робот инопланетянин человек

Внимание! Время в таблицах - всемирное. Для получения местного времени необходимо прибавить поправку, которая равна 12 ч.

Смотрите также архив погоды в соседних городах и на ближайших метеорологических станциях:

Погода в Анадыре АМС (Чукотка, Россия) (7 км)
Погода в Канчалане (Чукотка, Россия) (58 км)
Погода в Танюрере (Чукотка, Россия) (147 км)
Погода в Эньмувееме (Чукотка, Россия) (263 км)
Погода в Марково (Чукотка, Россия) (337 км)
Погода в Майской (Чукотка, Россия) (457 км)
Погода в Слаутном (Камчатский край, Россия) (504 км)
Погода в Паляваам-Глубокой (Чукотка, Россия) (505 км)
Погода в Илирнее (Чукотка, Россия) (513 км)
Погода в Комсомольской (Чукотка, Россия) (525 км)

Пояснения к столбцам:

Ветер - указаны скорость ветра в м/с - средняя за 10 мин, порывы в срок и между сроками (в фигурных скобках) и направление, откуда дует ветер: С - северный, СВ - северо-восточный, В - восточный, ЮВ - юго-восточный, Ю - южный, ЮЗ - юго-западный, З - западный, СЗ - северо-западный.
Видимость - горизонтальная дальность видимости в метрах или километрах. При видимости от 1 до 10 км при отсутствии осадков обычно наблюдается дымка, при ухудшении видимости до 1 км и менее - туман. В сухую погоду видимость может ухудшаться дымом, пылью или мглою.
Явления - указаны атмосферные явления, наблюдавшиеся в срок или в последний час перед сроком; фигурными скобками обозначены явления, наблюдавшиеся между сроками (за 1-3 часа до срока); квадратными скобками обозначены град или гололедные отложения с указанием их диаметра в мм.
Облачность - указаны через наклонную черту общая и нижняя облачность в баллах и высота нижней границы облаков в метрах; квадратными скобками обозначены формы облаков: Ci - перистые, Cs - перисто-слоистые, Cc - перисто-кучевые, Ac - высококучевые, As - высокослоистые, Sc - слоисто-кучевые, Ns - слоисто-дождевые, Cu - кучевые, Cb - кучево-дождевые. Подробнее классификацию облаков см. в Атласе облаков (PDF).
T - Температура воздуха - температура, измеренная на высоте 2 м над землей.
Td - Температура точки росы - температура, при понижении до которой содержащийся в воздухе водяной пар достигнет насыщения.
f - Относительная влажность воздуха - влажноcть воздуха, измеренная на высоте 2 м над землей.
Te - Эффективная температура - температура, которую ощущает одетый по сезону человек в тени. Характеристика душности погоды. При расчете учитывается влияние влажности воздуха и скорости ветра на теплоощущения человека.
Tes - Эффективная температура на солнце - температура, которую ощущает человек, с поправкой на солнечный нагрев. Характеристика знойности погоды. Зависит от высоты солнца над горизонтом, облачности и скорости ветра. Ночью, в пасмурную погоду, а также при ветре 12 м/с и более поправка равна нулю.
P - Атмосферное давление - приведенное к уровню моря атмосферное давление.
Po - Атмосферное давление - измеренное на уровне метеостанции атмосферное давление.
Tmin - Минимальная температура - минимум температуры воздуха на высоте 2 м над землей.
Tmax - Максимальная температура - максимум температуры воздуха на высоте 2 м над землей.
R - Количество осадков - Количество выпавших осадков за период времени, мм. При наведении курсора мыши на число - период времени, за который выпало указанное количество осадков.
R24 - Количество осадков - Количество выпавших осадков за 24 часа, мм.
S - Снежный покров - Высота снежного покрова, см. При наведении курсора мыши на число - состояние снежного покрова и степень покрытия местности в баллах.